Theta_e
338 338 336 336 336 337 337 337 336 335 334 334 334 334 335 337 338 338 337 336 332 332 332 332 333 334 334 335 333 333 331 331
337 337 336 335 336 337 337 336 336 336 335 334 334 335 335 336 337 338 337 336 333 330 330 332 333 333 333 334 334 331 330 331
337 336 336 336 336 336 335 335 336 337 336 335 335 336 336 336 337 337 336 335 334 333 330 330 333 333 332 331 332 332 330 331
335 335 336 339 339 335 336 338 339 338 338 337 336 336 336 336 337 337 336 336 334 334 333 330 331 333 333 331 331 331 331 330
334 335 338 339 339 341 340 340 341 339 339 338 337 336 337 337 337 338 338 337 335 334 333 331 330 330 333 333 331 330 330 329
334 337 338 338 337 343 341 343 345 341 338 338 338 337 337 337 337 337 338 337 336 335 333 332 330 330 331 331 330 330 329 329
333 335 337 339 336 338 339 340 341 342 340 338 338 338 337 337 336 336 337 337 336 335 334 333 331 330 331 330 329 329 328 328
333 333 333 335 335 335 336 337 338 337 338 337 338 338 338 337 337 336 336 337 336 335 334 333 332 330 330 330 329 328 327 328
331 333 334 334 334 333 335 335 335 335 334 336 336 336 340 338 336 336 336 336 335 335 335 334 332 330 330 329 329 329 328 328
331 332 332 332 332 332 330 330 333 335 337 336 336 335 335 335 335 336 336 336 335 335 335 334 332 331 330 329 329 329 328 327
339 334 332 331 331 333 332 331 331 331 332 332 333 334 333 334 335 335 336 336 335 335 334 334 333 331 330 329 330 330 329 328
339 339 336 332 333 334 333 333 331 331 331 331 331 332 332 334 335 334 335 336 336 335 334 333 333 331 329 329 329 329 329 326
337 339 340 338 335 335 335 334 334 333 331 331 330 331 331 333 334 336 336 336 336 336 335 333 331 332 330 329 329 328 329 328
336 337 339 340 338 336 335 335 335 335 335 335 336 333 334 333 334 336 338 338 337 336 335 332 331 331 329 328 327 326 327 326
332 335 337 339 339 339 338 337 337 337 337 338 338 338 339 337 337 337 337 338 338 336 336 334 330 330 331 328 324 324 323 323
313 329 334 337 339 339 338 337 336 337 337 337 339 340 340 339 338 338 337 337 338 336 335 334 332 329 329 330 325 323 320 321
323 328 334 336 338 339 337 337 337 336 337 337 335 336 338 338 339 340 338 338 338 338 335 333 332 331 329 328 326 323 323 322
311 317 317 326 334 334 335 334 334 334 333 331 329 326 335 336 339 339 339 339 338 337 336 334 333 332 330 329 328 326 322 321
305 306 306 308 311 312 314 314 317 323 330 329 325 328 334 336 336 337 337 338 337 335 335 334 333 331 330 328 327 326 325 323
302 302 302 303 304 305 306 307 308 310 313 317 326 329 331 333 334 334 335 335 336 334 333 333 332 330 329 328 327 326 325 324
Wind_Speed
35 33 31 30 28 29 29 29 28 28 28 27 26 24 23 22 21 19 18 17 17 18 18 17 16 15 15 14 12 11 8 10
34 32 31 32 31 29 28 28 28 28 28 27 26 24 23 22 21 20 18 17 16 17 17 16 16 15 15 14 12 10 7 10
32 32 31 30 31 30 28 27 28 28 27 27 26 25 24 23 22 21 19 17 16 16 16 14 15 15 14 13 13 11 10 11
33 31 30 27 27 32 31 29 28 28 28 28 27 26 25 24 22 21 19 18 16 16 15 14 14 16 16 15 13 12 12 13
34 32 30 29 25 27 28 30 31 30 30 30 28 27 26 24 23 22 21 20 19 17 16 16 14 15 17 17 14 13 13 14
34 33 32 31 28 26 25 29 31 32 32 31 31 30 28 26 26 25 24 23 21 21 19 17 15 14 16 16 15 15 14 16
39 37 36 33 31 26 28 27 27 28 30 33 32 30 31 29 27 27 26 24 23 22 21 20 17 16 16 16 15 16 15 15
37 43 42 38 35 31 27 26 30 28 29 34 33 31 28 30 29 28 28 26 24 23 22 21 19 17 18 17 16 16 16 16
40 43 42 43 40 37 33 29 28 31 31 29 34 31 28 28 30 29 28 26 24 24 22 21 19 19 19 18 17 17 17 16
43 40 44 44 45 42 39 37 33 30 29 30 29 30 29 27 28 29 27 26 25 24 24 22 21 20 20 18 18 17 17 18
37 42 44 48 45 41 40 40 36 33 30 29 28 28 29 27 26 27 25 26 26 25 25 24 23 21 20 18 18 18 16 17
42 42 44 45 35 33 33 34 36 35 34 33 32 31 29 28 27 26 25 27 26 26 26 25 24 24 20 19 19 19 17 17
40 40 42 34 32 32 28 32 35 38 37 36 33 33 30 29 28 27 27 29 28 27 27 25 24 21 15 13 15 20 21 19
39 41 40 41 36 35 26 30 29 29 35 36 31 32 31 31 31 29 30 30 29 28 28 21 20 23 9 6 2 5 16 22
37 39 38 41 36 29 22 20 16 22 29 33 34 33 32 33 32 31 32 32 32 32 30 28 18 23 24 8 2 4 2 10
17 21 24 29 31 31 30 23 18 21 25 26 33 35 34 34 34 30 34 34 34 32 31 33 28 18 22 28 11 7 3 2
20 22 20 20 25 29 28 24 23 18 18 18 10 19 29 29 31 31 34 35 35 36 34 32 34 26 23 17 20 11 7 3
28 30 26 23 23 21 21 17 15 17 17 12 17 14 26 28 28 33 37 37 36 36 35 32 33 31 31 29 24 12 8 6
26 28 28 28 27 22 18 14 11 12 12 19 20 27 30 30 31 36 38 38 36 36 35 34 33 33 34 32 31 28 21 20
25 25 27 26 21 19 16 13 10 8 6 6 14 24 27 26 27 31 33 35 38 35 35 34 34 35 35 34 32 32 30 26
Wind_Direction
179 181 181 178 183 183 179 178 176 174 173 170 168 168 167 165 164 163 164 159 155 150 152 155 158 167 166 164 157 154 156 168
182 183 184 180 181 186 184 181 179 177 176 175 173 173 173 173 172 170 170 168 165 157 154 164 165 174 175 182 181 180 185 181
185 184 184 185 182 183 186 185 183 181 180 179 177 179 179 179 179 176 175 175 176 171 163 166 173 183 184 191 194 194 183 188
188 185 185 184 185 180 183 185 185 184 183 182 185 185 185 185 184 184 180 180 181 181 177 175 182 188 189 197 202 205 206 205
188 186 184 184 183 179 180 183 185 186 187 187 189 189 191 191 188 189 188 188 185 186 186 189 194 197 198 202 206 213 207 206
187 186 186 184 184 181 184 183 187 189 190 191 191 191 194 196 195 195 194 195 193 191 193 197 202 207 205 204 208 218 218 217
194 189 189 185 187 185 185 187 191 193 194 194 197 196 197 199 200 200 201 202 202 199 198 203 206 209 209 214 221 221 226 230
202 199 196 192 190 189 189 191 192 196 198 199 201 202 200 202 203 205 205 207 208 210 206 209 211 215 215 220 228 231 235 234
208 205 201 202 201 198 196 197 198 200 202 202 204 206 205 206 207 208 209 210 212 214 214 215 216 217 219 226 230 233 236 234
211 208 207 206 208 208 208 208 206 206 205 205 206 210 211 213 211 213 212 213 214 217 218 217 220 222 223 225 229 233 238 238
207 208 211 211 211 213 212 213 214 217 217 216 213 214 218 218 217 219 216 216 216 219 220 222 223 223 228 230 232 236 237 246
210 207 213 214 207 210 217 219 217 221 222 222 222 221 221 220 221 222 219 217 216 218 222 222 227 230 231 236 237 238 239 247
203 203 209 201 197 196 203 209 214 218 222 224 222 222 222 221 222 220 218 219 219 219 222 226 224 226 220 232 244 251 241 243
200 207 204 205 200 203 202 205 213 215 216 218 220 218 216 218 219 219 218 218 218 219 219 212 218 219 185 174 202 253 249 249
201 205 202 205 199 195 200 194 204 204 219 218 214 218 217 218 219 221 222 221 220 221 220 217 193 205 210 186 146 218 178 237
198 198 197 198 194 192 191 183 185 203 209 218 218 216 218 223 223 222 225 223 224 225 224 220 214 194 205 219 221 160 182 242
136 152 152 168 183 194 186 181 192 194 193 194 197 240 216 224 226 228 229 228 229 227 225 217 216 202 199 196 215 204 196 151
88 104 102 119 141 151 165 164 174 162 167 187 263 307 269 244 237 233 232 231 230 231 228 223 225 219 212 209 198 198 193 181
65 73 73 89 99 103 106 112 119 129 142 164 183 241 251 248 238 234 233 236 236 234 230 228 226 225 219 213 214 214 214 214
59 60 64 69 77 74 77 74 72 84 125 169 182 227 245 247 249 242 240 237 238 236 234 231 230 226 222 213 217 217 223 227